Location: Huberhof
(49.2050°N, 7.4980°E)
Time: 05:09:18
(UTC+00:00)

In-Cosmos 22 Rocket - Pass Details

Date: 29 October 2020
Orbit: 790 x 888 km, 81.2° (Epoch: 25 November)

Event Time Altitude Azimuth Distance (km) Brightness Sun altitude
Rises 17:31:52 0° 347° (NNW) 3,311 7.4 -13.3°
Reaches altitude 10° 17:34:14 10° 347° (NNW) 2,385 6.7 -13.7°
Maximum altitude 17:39:37 83° 261° (W) 823 4.2 -14.6°
Drops below altitude 10° 17:45:05 10° 173° (S) 2,419 6.6 -15.5°
Sets 17:47:30 0° 173° (S) 3,363 7.3 -15.9°
